Theta_e
334 337 338 341 345 343 342 343 341 344 342 342 341 341 338 342 342 341 345 343 341 341 332 330 328 331 329 329 328 329 324 322 327 320 322 323 323 320 322 322 322 321 322
335 335 334 335 340 345 345 346 344 343 343 344 341 342 340 344 343 342 342 343 337 334 332 331 330 331 330 331 329 325 323 323 323 318 315 313 317 320 323 321 322 322 322
334 333 333 334 335 340 348 350 349 345 343 345 345 342 342 340 338 337 337 339 339 337 334 333 331 331 331 327 326 325 324 320 323 323 316 311 310 314 320 321 322 321 320
334 334 332 333 336 338 347 350 351 345 344 344 343 341 337 333 336 338 339 338 339 338 336 334 333 333 332 330 329 328 325 325 321 320 323 319 317 310 310 317 320 320 322
333 333 333 336 339 341 343 349 350 346 344 346 342 343 338 339 336 338 337 338 338 338 338 335 334 330 330 329 330 329 328 325 322 319 318 318 317 316 311 308 311 320 322
333 335 337 338 339 341 345 349 350 348 347 346 347 341 338 339 337 334 333 337 338 337 336 336 333 332 331 329 329 330 329 326 322 321 322 320 316 313 313 309 309 311 315
325 331 335 337 336 339 344 348 348 346 347 346 346 346 343 341 336 335 335 334 333 335 336 335 334 332 332 330 330 328 329 327 326 324 325 325 321 319 317 313 310 310 313
325 326 334 335 335 333 336 341 344 344 344 344 344 348 345 342 339 339 337 335 333 335 337 337 335 335 335 333 332 330 330 330 329 328 328 328 327 323 322 317 313 309 309
318 322 324 329 329 332 330 327 325 331 343 343 344 343 341 341 338 334 337 336 337 337 335 335 334 335 335 333 330 330 329 329 329 329 328 328 329 325 324 321 317 312 303
320 324 327 332 331 330 331 328 326 327 340 343 340 340 343 342 339 337 330 329 330 332 334 335 332 333 333 332 329 326 328 325 327 328 328 328 329 328 325 323 320 316 310
317 322 324 331 330 326 325 325 324 338 339 340 339 339 338 334 330 328 327 329 329 330 334 336 334 332 329 328 326 326 327 326 326 326 326 326 326 326 325 324 322 319 316
317 317 323 327 326 323 322 325 332 330 327 332 336 332 330 329 327 327 328 332 333 336 334 333 332 332 331 328 327 325 325 323 321 322 322 324 328 326 326 324 321 318 316
329 324 320 322 323 324 324 323 326 329 328 326 334 329 329 329 329 328 329 333 331 328 327 327 327 326 326 326 325 324 323 322 321 321 320 320 321 323 323 322 321 320 320
330 331 332 327 326 326 326 324 324 324 326 336 332 331 330 330 329 330 329 328 327 325 324 323 323 323 321 321 321 321 318 317 319 319 320 319 318 317 318 319 318 318 317
326 327 326 328 333 330 330 330 327 330 335 333 331 331 330 330 327 325 325 325 323 323 322 321 320 319 319 319 315 316 315 314 314 314 316 317 319 322 319 316 316 314 315
325 326 326 326 325 324 324 326 328 333 333 332 330 327 326 325 320 322 323 322 321 321 320 317 317 316 318 312 311 313 311 313 312 311 314 313 318 317 318 317 317 315 312
325 325 325 324 323 323 323 321 321 322 321 324 324 322 319 318 317 319 317 316 315 314 313 312 310 311 311 308 307 309 309 310 310 311 311 312 315 314 314 314 314 313 313
324 325 324 323 322 323 322 323 322 321 321 319 319 318 317 316 315 316 314 313 312 310 309 308 311 310 312 308 305 306 305 307 310 311 310 309 309 308 306 308 311 310 310
324 325 326 325 324 323 324 323 321 319 319 316 315 316 316 313 312 309 312 311 308 309 308 310 309 309 309 304 305 305 307 307 308 309 311 309 305 303 301 306 306 306 307
326 326 327 325 324 323 321 318 317 317 314 314 314 314 314 311 308 307 309 310 309 311 312 310 309 311 308 306 306 305 305 303 304 305 307 306 304 301 302 303 303 302 305
322 323 325 323 325 323 317 314 315 313 314 315 313 312 311 309 308 311 310 309 311 309 307 307 311 310 310 310 304 302 302 304 304 306 305 307 297 298 295 296 300 302 304
322 322 322 323 320 319 315 313 310 311 312 312 312 311 309 313 313 310 311 310 310 311 309 307 307 308 307 305 303 302 300 302 303 304 305 304 300 298 299 300 299 298 299
318 320 318 320 320 318 316 311 310 310 311 309 308 310 310 311 312 313 309 307 308 309 307 308 306 305 306 306 303 303 301 302 302 304 303 300 298 298 299 300 298 297 300
314 314 312 311 311 312 314 310 310 311 310 308 308 309 312 309 313 309 309 305 303 303 307 305 303 302 305 304 302 302 303 302 301 301 299 299 299 299 301 302 301 303 306
312 312 310 309 309 310 310 311 312 312 310 310 311 308 307 309 308 308 306 305 305 305 302 300 303 302 302 301 295 295 299 299 299 296 297 301 303 304 303 304 306 306 305
307 307 308 308 308 309 308 309 312 313 310 308 308 307 309 307 306 305 307 303 301 297 295 295 297 301 297 294 292 293 292 292 292 296 302 302 300 301 301 302 302 305 305
Wind_Speed
9 9 8 10 11 16 14 11 9 12 8 3 4 2 3 3 3 2 6 6 5 6 5 3 2 2 3 4 5 3 3 2 2 2 2 3 7 6 5 9 10 10 10
9 9 8 8 8 13 13 11 9 11 8 7 4 3 3 3 3 4 6 6 7 7 5 4 3 2 4 3 5 5 2 2 1 2 2 1 2 3 5 4 8 11 9
15 12 10 9 9 9 10 10 10 11 7 8 4 2 3 3 1 2 3 6 8 7 7 6 5 5 3 2 3 4 5 4 3 4 4 1 4 0 2 8 7 7 7
15 14 14 9 9 8 8 9 10 11 9 8 7 6 5 5 5 5 2 4 6 7 7 7 6 5 3 3 2 4 4 3 5 3 4 3 5 4 3 2 4 5 9
19 16 16 14 7 9 9 8 9 9 7 7 8 7 6 4 1 4 7 6 6 7 7 7 7 6 4 4 4 3 5 4 3 4 3 2 3 4 3 4 4 4 7
18 18 15 9 8 9 10 10 10 10 9 8 8 8 7 4 4 4 5 4 3 4 6 6 6 6 5 5 5 5 5 5 5 4 4 4 4 3 4 3 5 6 5
12 15 16 13 10 12 9 8 7 4 5 6 6 6 5 6 7 5 3 3 3 4 7 7 6 5 7 7 6 6 6 6 4 6 5 4 5 4 3 3 4 5 5
10 10 15 12 10 16 12 10 8 1 3 4 6 7 7 5 4 4 3 0 2 3 6 6 6 7 7 6 6 4 5 6 6 8 7 8 8 4 4 4 4 3 3
13 12 11 13 18 17 17 13 7 6 9 7 7 7 4 4 5 3 4 2 3 3 4 4 6 6 7 7 6 5 6 6 7 9 8 8 8 5 5 4 4 4 4
14 11 12 16 17 21 14 11 15 11 8 6 5 4 5 5 6 5 3 4 3 4 7 6 6 5 5 5 6 6 6 6 7 7 9 9 8 7 7 6 5 5 6
11 13 9 10 17 21 19 14 7 6 7 7 7 6 5 7 5 3 0 3 4 5 7 6 5 4 4 5 5 6 6 6 8 8 9 9 8 6 6 7 7 5 4
5 7 12 13 14 14 11 7 5 3 1 2 3 4 6 6 4 1 3 5 6 5 6 4 4 4 3 3 4 5 5 6 6 7 6 7 6 10 11 8 9 1 2
16 16 10 12 9 9 6 4 3 3 1 6 3 3 4 5 4 3 5 4 2 5 6 6 6 5 5 4 4 3 4 5 5 5 4 5 4 5 4 5 3 5 4
16 13 14 10 9 6 3 5 5 4 8 11 7 7 6 5 1 1 4 5 4 6 5 6 6 6 6 6 6 5 5 6 5 6 5 6 6 6 5 5 5 5 6
15 14 13 11 10 9 9 9 7 9 8 6 3 1 4 7 6 4 6 5 6 5 6 6 6 6 3 2 4 5 5 5 6 7 6 6 8 11 7 4 5 5 5
15 14 11 11 9 8 7 6 5 6 5 4 4 6 5 5 5 6 6 6 5 6 5 6 6 6 4 9 8 4 4 5 6 7 7 7 9 9 12 11 11 7 6
15 13 9 9 8 8 7 6 5 4 6 7 5 6 7 6 6 7 7 6 5 4 3 6 6 5 6 8 8 7 4 5 6 7 7 7 6 8 7 8 10 7 11
13 10 8 8 7 5 5 4 4 5 7 7 6 6 6 6 6 6 6 4 2 1 3 5 6 5 6 11 12 10 5 6 7 5 7 6 6 6 6 7 7 6 6
8 7 7 7 7 8 7 8 7 7 7 6 6 6 6 6 6 4 1 2 1 2 3 4 6 7 4 6 9 7 4 5 7 5 5 4 0 3 8 6 6 7 6
8 7 8 7 8 7 7 8 6 7 6 6 5 5 5 4 2 4 4 4 3 4 3 4 5 5 1 7 22 11 5 6 5 6 7 2 3 7 6 3 3 5 7
9 9 10 8 8 7 7 6 6 4 1 4 5 5 4 2 3 4 3 3 3 7 9 6 6 6 5 7 12 14 5 5 4 4 5 4 5 8 7 5 5 7 4
9 7 8 8 7 6 6 5 5 1 3 4 4 4 3 3 3 5 4 4 6 6 6 6 10 7 7 7 7 7 3 4 3 5 5 5 10 14 16 11 13 14 8
4 6 7 8 6 5 5 4 4 2 3 1 2 3 4 4 5 2 3 5 5 5 6 8 6 8 5 5 7 9 9 8 4 5 6 14 16 16 12 14 13 6 4
7 7 8 8 5 3 3 2 4 3 2 3 5 5 4 5 6 5 5 3 2 3 3 6 6 5 5 3 4 5 5 7 7 9 9 11 16 15 10 9 6 4 3
7 7 7 5 4 4 5 4 4 3 3 5 6 6 4 5 4 3 3 2 5 6 4 4 4 3 4 3 3 4 4 5 6 8 4 5 7 8 7 6 3 2 2
5 6 7 7 4 4 4 5 6 8 7 6 5 4 4 4 3 3 4 6 5 9 3 1 1 3 2 3 5 6 7 5 5 3 4 6 7 7 7 8 4 2 3
Wind_Direction
184 168 155 155 156 163 161 178 154 162 156 149 156 156 187 173 204 172 169 170 129 108 117 124 129 249 210 207 211 175 210 303 297 28 335 229 205 183 198 176 185 185 183
165 164 159 143 147 161 175 168 151 157 159 152 169 165 171 186 184 166 158 165 137 143 147 170 192 227 241 238 187 170 178 232 229 207 145 295 305 276 209 196 184 187 184
174 169 171 172 166 161 162 165 147 162 164 158 141 118 78 45 68 204 168 168 164 170 170 182 197 215 170 198 212 186 179 205 277 193 176 140 225 269 209 210 204 186 183
177 175 177 179 177 173 152 151 152 154 161 175 149 153 172 182 211 188 164 185 178 186 179 189 205 211 196 194 222 218 207 171 241 329 223 249 160 175 293 299 226 205 198
184 182 183 181 168 147 156 148 141 147 170 170 157 173 195 201 242 136 158 186 195 199 195 188 197 203 192 204 210 244 244 210 197 194 267 292 231 218 162 232 244 213 210
184 187 179 148 145 147 142 150 145 166 167 184 179 183 200 218 142 153 161 187 203 219 209 202 198 200 203 207 218 231 238 230 224 216 201 205 233 240 193 214 232 204 230
149 146 156 152 151 153 139 131 99 128 181 196 192 183 197 192 178 172 183 212 216 202 214 192 193 209 199 210 215 219 229 223 212 218 236 213 214 212 222 206 244 220 247
147 150 140 138 132 92 71 73 66 288 277 256 232 200 202 155 164 190 207 290 326 283 218 205 207 201 207 211 218 217 222 223 231 230 225 243 251 230 215 207 208 248 244
66 65 55 63 89 67 80 80 8 324 288 232 236 230 199 132 145 47 55 29 11 305 294 272 239 223 211 209 221 227 227 223 237 242 237 233 249 239 238 237 201 195 233
87 101 101 115 119 119 131 180 215 210 244 219 269 276 150 122 102 98 58 27 341 307 297 278 273 257 247 236 223 252 249 255 255 249 251 248 241 237 234 228 230 213 208
137 147 137 124 131 145 163 192 172 186 189 194 207 200 181 108 94 96 348 293 283 269 265 278 281 295 275 274 281 272 258 250 261 263 259 255 251 250 246 227 229 234 217
153 132 123 125 139 158 130 159 139 190 297 328 318 152 97 98 115 253 268 271 259 277 253 261 271 279 267 258 248 262 278 279 278 274 280 269 262 251 251 251 227 3 5
62 58 69 76 71 87 96 94 127 237 5 319 209 196 172 158 203 221 251 254 10 53 24 29 21 359 323 316 344 334 320 322 310 307 305 300 305 292 263 250 235 233 207
77 75 66 98 112 123 166 165 194 190 208 205 194 178 167 175 204 256 66 95 72 59 45 37 23 14 26 36 18 355 355 348 332 317 294 283 274 266 254 234 226 216 217
86 85 82 86 104 139 170 177 196 201 182 166 145 355 59 108 120 112 107 88 58 33 28 18 2 357 348 18 350 331 333 329 324 317 310 291 282 280 255 206 230 216 230
106 98 91 85 82 83 85 107 140 171 167 149 121 127 115 87 41 94 98 90 66 42 23 346 344 339 336 339 336 321 315 309 298 293 294 288 288 289 274 256 242 213 208
112 105 109 99 92 82 80 66 70 59 84 137 138 97 91 85 70 87 79 71 64 49 358 331 339 323 317 312 316 310 297 295 286 283 285 292 291 290 286 274 258 249 245
121 125 120 103 104 94 59 21 56 46 69 80 87 80 75 76 68 81 84 86 99 13 305 308 317 314 300 351 348 329 294 284 284 282 285 304 311 355 357 330 294 243 229
118 128 120 106 88 76 56 41 39 42 68 55 47 46 60 77 69 40 122 214 226 291 290 308 311 317 359 6 347 338 301 283 284 289 304 295 359 344 35 22 352 316 270
130 139 121 113 103 88 70 56 35 61 48 36 31 43 64 90 30 305 295 231 239 251 290 322 326 323 94 4 300 274 270 277 281 306 300 193 189 356 332 350 315 300 279
117 113 126 127 124 115 100 77 75 57 31 40 36 33 31 10 316 315 245 277 3 10 337 345 333 310 221 259 269 269 278 276 298 297 302 314 251 295 275 258 247 241 226
78 87 99 119 132 127 106 96 87 49 29 28 12 355 333 322 330 316 354 41 13 16 14 354 337 323 294 288 305 331 344 331 331 299 294 300 293 299 293 282 250 243 246
80 78 82 85 111 126 133 143 192 190 257 231 278 268 279 291 331 349 21 47 42 34 47 324 266 282 292 312 21 3 359 341 327 285 297 306 292 288 290 269 259 233 233
97 93 82 82 89 79 84 199 228 244 247 265 279 289 346 346 43 76 79 104 193 228 231 274 288 280 298 15 12 350 338 331 338 332 313 300 290 278 275 289 222 190 215
78 82 83 72 44 35 25 17 3 8 10 26 43 41 20 35 81 130 196 234 251 213 219 242 264 314 336 346 309 313 333 331 311 316 305 326 334 341 342 337 19 68 273
81 67 64 69 51 44 15 1 22 66 72 59 45 42 34 13 345 299 305 268 294 330 36 20 122 7 110 276 292 280 321 331 14 353 334 344 346 345 351 353 357 29 348